EW2958 Weather Reports


Display with metric or nautical units.
time (UTC)temp
F
wind
direction
speed
MPH
gust
MPH
rain 1hr
in
rain 24hr
in
rain mn
in
humidity
%
barometer
mb
20260904091522 57 100 1.0 3.0 0.00 0.00 0.00 68 1012.8
20260904090021 57 49 0.0 3.0 0.00 0.00 0.00 68 1012.8
20260904084520 57 90 1.0 6.0 0.00 0.00 0.00 67 1012.6
20260904083017 57 37 6.0 10.0 0.00 0.00 0.00 68 1012.8
20260904081516 57 30 5.0 10.0 0.00 0.00 0.00 68 1012.8
20260904080014 58 40 2.0 4.0 0.00 0.00 0.00 67 1013.0
20260904074516 59 349 2.0 5.0 0.00 0.00 0.00 64 1013.1
20260904073014 60 16 2.0 5.0 0.00 0.00 0.00 63 1013.2
20260904071513 59 302 3.0 7.0 0.00 0.00 0.00 63 1013.1
20260904070033 60 330 4.0 12.0 0.00 0.00 0.00 61 1013.3
20260904064509 60 320 5.0 10.0 0.00 0.00 0.00 62 1013.6
20260904063012 60 300 5.0 13.0 0.00 0.00 0.00 62 1013.7
20260904061506 61 329 5.0 14.0 0.00 0.00 0.00 61 1013.9
20260904060007 61 326 5.0 15.0 0.00 0.00 0.00 60 1014.0
20260904054505 61 339 5.0 12.0 0.00 0.00 0.00 59 1014.2
20260904053003 61 318 4.0 9.0 0.00 0.00 0.00 57 1014.4
20260904051558 61 300 2.0 9.0 0.00 0.00 0.00 58 1014.5
20260904050053 61 336 4.0 9.0 0.00 0.00 0.00 57 1014.6
20260904044554 61 334 4.0 12.0 0.00 0.00 0.00 56 1014.7
20260904043050 61 288 8.0 18.0 0.00 0.00 0.00 57 1014.8
20260904041554 61 307 4.0 12.0 0.00 0.00 0.00 56 1014.8
20260904040046 60 314 3.0 10.0 0.00 0.00 0.00 58 1014.9
20260904034552 59 282 9.0 16.0 0.00 0.00 0.00 55 1014.9
20260904033040 59 340 7.0 14.0 0.00 0.00 0.00 55 1015.4
20260904031542 58 270 9.0 19.0 0.00 0.00 0.00 56 1015.6
20260904030035 58 285 9.0 17.0 0.00 0.00 0.00 55 1015.7
20260904024531 59 273 4.0 13.0 0.00 0.00 0.00 52 1016.0
20260904023028 58 265 4.0 13.0 0.00 0.00 0.00 54 1016.4
20260904021522 58 280 5.0 13.0 0.00 0.00 0.00 55 1016.8
20260904020019 57 257 6.0 14.0 0.00 0.00 0.00 55 1017.1
20260904014515 57 282 6.0 13.0 0.00 0.00 0.00 55 1017.4
20260904013012 56 285 5.0 12.0 0.00 0.00 0.00 55 1017.6
20260904011533 55 277 6.0 16.0 0.00 0.00 0.00 54 1017.8
20260904010012 56 266 3.0 10.0 0.00 0.00 0.00 54 1017.9
20260904004537 55 328 3.0 12.0 0.00 0.02 0.00 56 1018.1
20260904003036 55 263 3.0 16.0 0.00 0.02 0.00 59 1018.4
20260904001535 55 243 4.0 15.0 0.00 0.02 0.00 58 1018.7
20260904000040 54 271 7.0 17.0 0.00 0.02 0.00 55 1018.8
20260903234539 54 288 6.0 16.0 0.00 0.02 0.00 58 1018.9
20260903233030 54 271 3.0 8.0 0.00 0.02 0.00 62 1018.8
20260903231527 53 267 3.0 10.0 0.00 0.02 0.00 63 1018.8
20260903230033 52 278 3.0 10.0 0.00 0.02 0.00 67 1019.2
20260903224510 51 320 2.0 8.0 0.00 0.02 0.00 70 1019.2
20260903223006 49 304 3.0 9.0 0.00 0.02 0.00 72 1019.2
20260903221503 47 257 2.0 6.0 0.00 0.02 0.00 75 1019.1
20260903220122 45 289 1.0 6.0 0.00 0.02 0.00 77 1019.1
20260903214559 44 272 1.0 2.0 0.00 0.02 0.00 77 1018.8
20260903213104 43 275 0.0 3.0 0.00 0.02 0.00 77 1018.6
20260903211601 42 345 1.0 3.0 0.00 0.02 0.00 79 1018.5
20260903210106 41 345 0.0 1.0 0.00 0.02 0.00 80 1018.3
20260903204554 42 345 1.0 3.0 0.00 0.02 0.00 79 1018.2
20260903203118 42 352 1.0 2.0 0.00 0.02 0.00 79 1018.1
20260903201552 41 356 0.0 1.0 0.00 0.02 0.00 79 1018.0
20260903200050 42 356 0.0 2.0 0.00 0.02 0.00 79 1017.9
20260903194551 42 152 0.0 1.0 0.00 0.02 0.00 80 1017.8
20260903193043 41 276 0.0 0.0 0.00 0.02 0.00 80 1017.8
20260903191540 42 276 0.0 2.0 0.00 0.02 0.00 79 1017.7
20260903190038 42 280 2.0 5.0 0.00 0.02 0.00 79 1017.7
20260903184537 42 286 2.0 6.0 0.00 0.02 0.00 79 1017.6
20260903183042 42 278 2.0 6.0 0.00 0.02 0.00 79 1017.5
20260903181534 43 277 2.0 7.0 0.00 0.02 0.00 79 1017.4
20260903180032 42 295 2.0 5.0 0.00 0.02 0.00 80 1017.6
20260903174530 42 269 4.0 7.0 0.00 0.02 0.00 81 1017.6
20260903173047 42 291 1.0 6.0 0.00 0.02 0.00 82 1017.7
20260903171558 42 283 4.0 7.0 0.00 0.02 0.00 82 1017.9
20260903170043 43 290 3.0 6.0 0.00 0.02 0.00 81 1018.0
20260903164601 43 287 2.0 5.0 0.00 0.02 0.00 81 1018.1
20260903163039 43 283 2.0 5.0 0.00 0.02 0.00 81 1018.2
20260903161536 43 274 2.0 8.0 0.00 0.02 0.00 81 1018.4
20260903160036 43 287 3.0 6.0 0.00 0.02 0.00 80 1018.5
20260903154538 43 292 3.0 6.0 0.00 0.02 0.00 81 1018.6
20260903153031 43 281 2.0 6.0 0.00 0.02 0.00 82 1018.7
20260903151527 43 271 2.0 6.0 0.00 0.02 0.00 83 1018.8
20260903150027 43 267 4.0 7.0 0.00 0.02 0.00 83 1018.8
20260903144539 43 271 4.0 7.0 0.00 0.02 0.00 83 1019.0
20260903143032 44 283 3.0 6.0 0.00 0.02 0.00 82 1019.0
20260903141516 46 269 4.0 8.0 0.00 0.02 0.00 80 1019.1
20260903140019 46 308 1.0 5.0 0.00 0.02 0.00 80 1018.9
20260903134513 47 322 1.0 5.0 0.00 0.02 0.02 80 1018.9
20260903133012 47 293 2.0 6.0 0.00 0.02 0.02 80 1018.9
20260903131511 47 293 1.0 4.0 0.00 0.02 0.02 80 1018.9
20260903130010 46 300 1.0 4.0 0.00 0.02 0.02 82 1018.8
20260903124510 46 283 1.0 4.0 0.00 0.02 0.02 81 1018.9
20260903123008 47 291 3.0 5.0 0.00 0.02 0.02 80 1018.9
20260903121615 48 281 2.0 8.0 0.00 0.02 0.02 78 1018.9
20260903120037 47 257 4.0 7.0 0.00 0.02 0.02 80 1018.8
20260903114524 47 278 2.0 4.0 0.00 0.02 0.02 81 1018.9
20260903113031 47 277 4.0 6.0 0.00 0.02 0.02 81 1018.7
20260903111520 48 281 2.0 5.0 0.00 0.02 0.02 81 1018.7
20260903110019 48 268 3.0 5.0 0.00 0.02 0.02 80 1018.5
20260903104516 48 285 2.0 5.0 0.00 0.02 0.02 79 1018.2
20260903103014 49 276 3.0 6.0 0.00 0.02 0.02 78 1018.0
20260903101521 49 275 3.0 6.0 0.00 0.02 0.02 77 1017.7
20260903100021 49 274 2.0 4.0 0.00 0.02 0.02 77 1017.7
20260903094547 49 277 2.0 4.0 0.00 0.02 0.02 77 1017.6
20260903093036 50 281 2.0 3.0 0.00 0.02 0.02 75 1017.4